FW4298 Weather Reports


Display with metric or nautical units.
time (UTC)temp
F
wind
direction
speed
MPH
gust
MPH
rain 1hr
in
rain 24hr
in
rain mn
in
humidity
%
barometer
mb
20260508003950 64 71 2.0 5.0 0.00 0.00 0.00 77 1016.3
20260508003449 64 20 2.0 5.0 0.00 0.00 0.00 77 1016.6
20260508002950 64 17 3.0 5.0 0.00 0.00 0.00 77 1016.7
20260508002721 64 42 2.0 5.0 0.00 0.00 0.00 77 1016.3
20260508001950 65 48 2.0 4.0 0.00 0.00 0.00 76 1016.5
20260508001449 65 73 1.0 4.0 0.00 0.00 0.00 76 1016.5
20260508000943 65 46 2.0 4.0 0.00 0.00 0.00 76 1016.9
20260508000706 65 34 2.0 4.0 0.00 0.00 0.00 75 1016.9
20260508000208 65 11 1.0 4.0 0.00 0.00 0.00 75 1016.9
20260507235438 65 53 2.0 5.0 0.00 0.00 0.00 75 1017.0
20260507234937 65 349 2.0 5.0 0.00 0.00 0.00 75 1017.4
20260507234438 66 338 2.0 5.0 0.00 0.00 0.00 74 1017.5
20260507233935 66 344 2.0 5.0 0.00 0.00 0.00 73 1017.6
20260507233434 66 9 2.0 4.0 0.00 0.00 0.00 74 1017.5
20260507232936 66 323 1.0 3.0 0.00 0.00 0.00 74 1017.6
20260507232435 65 84 1.0 3.0 0.00 0.00 0.00 75 1017.5
20260507232155 65 85 2.0 4.0 0.00 0.00 0.00 74 1017.4
20260507231435 65 28 2.0 5.0 0.00 0.00 0.00 75 1017.1
20260507230935 65 18 2.0 5.0 0.00 0.00 0.00 74 1016.7
20260507230701 66 92 3.0 7.0 0.00 0.00 0.00 72 1016.8
20260507225935 65 15 3.0 7.0 0.00 0.00 0.00 72 1017.1
20260507225435 65 27 2.0 5.0 0.00 0.00 0.00 71 1017.3
20260507224934 65 93 3.0 9.0 0.00 0.00 0.00 71 1017.3
20260507224434 65 95 3.0 9.0 0.00 0.00 0.00 71 1017.4
20260507223934 65 63 3.0 6.0 0.00 0.00 0.00 71 1017.5
20260507223427 65 102 2.0 6.0 0.00 0.00 0.00 71 1017.5
20260507222921 65 40 1.0 5.0 0.00 0.00 0.00 72 1017.7
20260507222638 65 350 2.0 4.0 0.00 0.00 0.00 74 1017.8
20260507221909 65 355 2.0 4.0 0.00 0.00 0.00 73 1017.8
20260507221409 65 39 2.0 7.0 0.00 0.00 0.00 72 1017.8
20260507220909 65 89 3.0 8.0 0.00 0.00 0.00 73 1017.8
20260507220409 65 65 3.0 8.0 0.00 0.00 0.00 72 1017.7
20260507215907 65 20 3.0 9.0 0.00 0.00 0.00 72 1018.0
20260507215407 65 27 4.0 10.0 0.00 0.00 0.00 72 1017.8
20260507214906 65 74 5.0 10.0 0.00 0.00 0.00 72 1018.0
20260507214408 65 351 4.0 10.0 0.00 0.00 0.00 73 1018.4
20260507214128 65 325 3.0 10.0 0.00 0.00 0.00 75 1018.4
20260507213406 65 86 3.0 8.0 0.00 0.00 0.00 73 1018.3
20260507213133 65 322 4.0 10.0 0.00 0.00 0.00 75 1018.6
20260507212407 65 351 4.0 10.0 0.00 0.00 0.00 75 1018.5
20260507212136 65 349 4.0 9.0 0.00 0.00 0.00 75 1018.3
20260507211406 64 9 4.0 9.0 0.00 0.00 0.00 75 1018.3
20260507210905 65 346 4.0 8.0 0.00 0.00 0.00 75 1018.3
20260507210407 65 9 4.0 8.0 0.00 0.00 0.00 75 1018.5
20260507210130 64 14 3.0 7.0 0.00 0.00 0.00 76 1018.6
20260507205406 64 40 3.0 9.0 0.00 0.00 0.00 76 1018.3
20260507205131 64 17 4.0 9.0 0.00 0.00 0.00 76 1018.4
20260507204403 64 23 3.0 9.0 0.00 0.00 0.00 75 1018.0
20260507203901 64 19 4.0 9.0 0.00 0.00 0.00 76 1018.4
20260507203358 64 10 5.0 10.0 0.00 0.00 0.00 76 1018.4
20260507202858 64 350 4.0 10.0 0.00 0.00 0.00 75 1018.6
20260507202359 64 15 3.0 6.0 0.00 0.00 0.00 76 1018.7
20260507202348 64 28 2.0 6.0 0.00 0.00 0.00 76 1018.7
20260507201359 64 84 2.0 6.0 0.00 0.00 0.00 76 1019.0
20260507200858 64 41 3.0 7.0 0.00 0.00 0.00 75 1019.1
20260507200359 64 46 4.0 8.0 0.00 0.00 0.00 76 1019.0
20260507195857 64 324 5.0 10.0 0.00 0.00 0.00 76 1018.4
20260507195624 64 0 4.0 10.0 0.00 0.00 0.00 76 1018.5
20260507194857 64 28 3.0 9.0 0.00 0.00 0.00 75 1018.7
20260507194357 64 38 4.0 9.0 0.00 0.00 0.00 75 1018.9
20260507193855 64 349 3.0 9.0 0.00 0.00 0.00 76 1019.1
20260507193355 64 351 3.0 10.0 0.00 0.00 0.00 75 1019.5
20260507192853 64 346 3.0 10.0 0.00 0.00 0.00 75 1019.7
20260507192614 64 321 3.0 10.0 0.00 0.00 0.00 75 1019.7
20260507191853 64 344 4.0 10.0 0.00 0.00 0.00 76 1019.9
20260507191352 64 10 2.0 8.0 0.00 0.00 0.00 79 1019.9
20260507190853 63 73 2.0 8.0 0.00 0.00 0.00 77 1019.6
20260507190352 63 64 3.0 8.0 0.00 0.00 0.00 77 1019.4
20260507185852 63 44 4.0 10.0 0.00 0.00 0.00 78 1019.1
20260507185353 63 25 4.0 10.0 0.00 0.00 0.00 78 1018.9
20260507185114 63 17 4.0 10.0 0.00 0.00 0.00 79 1019.0
20260507184350 63 351 5.0 12.0 0.00 0.00 0.00 78 1019.3
20260507183850 62 15 7.0 12.0 0.00 0.00 0.00 78 1018.9
20260507183608 62 13 5.0 11.0 0.00 0.00 0.00 78 1018.7
20260507182846 62 50 4.0 9.0 0.00 0.00 0.00 79 1018.9
20260507182347 62 30 5.0 10.0 0.00 0.00 0.00 79 1018.9
20260507181847 62 0 5.0 10.0 0.00 0.00 0.00 79 1019.3
20260507181347 62 20 3.0 10.0 0.00 0.00 0.00 79 1019.3
20260507181117 62 21 4.0 8.0 0.00 0.00 0.00 79 1019.2
20260507180347 63 11 4.0 10.0 0.00 0.00 0.00 79 1019.3
20260507175847 62 318 4.0 10.0 0.00 0.00 0.00 80 1019.6
20260507175347 62 39 4.0 10.0 0.00 0.00 0.00 79 1019.7
20260507174847 62 351 4.0 16.0 0.00 0.00 0.00 79 1019.7
20260507174609 62 316 4.0 16.0 0.00 0.00 0.00 80 1020.4
20260507173847 62 22 4.0 16.0 0.00 0.00 0.00 81 1020.5
20260507173346 61 21 7.0 16.0 0.00 0.00 0.00 81 1019.6
20260507172844 61 42 6.0 16.0 0.00 0.00 0.00 81 1019.1
20260507172345 61 33 6.0 12.0 0.00 0.00 0.00 82 1018.9
20260507172116 61 0 7.0 14.0 0.00 0.00 0.00 82 1019.1
20260507171606 61 343 7.0 14.0 0.00 0.00 0.00 84 1019.6
20260507171106 60 28 6.0 13.0 0.00 0.00 0.00 84 1019.7
20260507170344 60 9 4.0 12.0 0.00 0.00 0.00 86 1020.3
20260507165843 59 351 4.0 12.0 0.00 0.00 0.00 87 1019.6
20260507165342 59 67 5.0 12.0 0.00 0.00 0.00 87 1019.5
20260507164838 59 22 4.0 10.0 0.00 0.00 0.00 88 1019.1
20260507164337 58 88 4.0 10.0 0.00 0.00 0.00 87 1019.1
20260507163838 59 78 5.0 10.0 0.00 0.00 0.00 86 1020.0
20260507163606 59 22 4.0 10.0 0.00 0.00 0.00 86 1019.0
20260507163101 59 9 4.0 9.0 0.00 0.00 0.00 85 1020.8
20260507162337 59 29 3.0 8.0 0.00 0.00 0.00 85 1021.3
20260507162328 59 344 3.0 8.0 0.00 0.00 0.00 86 1021.6
20260507161340 59 14 3.0 8.0 0.00 0.00 0.00 86 1021.4
20260507160841 59 343 4.0 10.0 0.00 0.00 0.00 86 1021.2
20260507160336 59 32 5.0 10.0 0.00 0.00 0.00 86 1020.8
20260507160107 59 315 4.0 10.0 0.00 0.00 0.00 87 1020.9
20260507155335 59 12 4.0 10.0 0.00 0.00 0.00 87 1020.4
20260507154836 59 351 4.0 10.0 0.00 0.00 0.00 87 1020.8
20260507154334 59 48 3.0 8.0 0.00 0.00 0.00 87 1020.6
20260507153836 59 336 3.0 12.0 0.00 0.00 0.00 88 1021.3
20260507153334 58 331 3.0 12.0 0.00 0.00 0.00 88 1021.2
20260507153101 58 90 5.0 12.0 0.00 0.00 0.00 88 1021.3
20260507152327 58 15 6.0 12.0 0.00 0.00 0.00 88 1020.5
20260507151822 58 15 4.0 10.0 0.00 0.00 0.00 88 1020.7
20260507151317 58 302 5.0 12.0 0.00 0.00 0.00 89 1020.7
20260507150817 58 24 6.0 12.0 0.00 0.00 0.00 89 1020.5
20260507150318 58 19 4.0 12.0 0.00 0.00 0.00 90 1020.7
20260507145819 58 9 4.0 12.0 0.00 0.00 0.00 90 1020.9
20260507145318 58 44 5.0 12.0 0.00 0.00 0.00 90 1020.6
20260507144818 57 82 5.0 12.0 0.00 0.00 0.00 90 1020.8
20260507144318 57 332 5.0 11.0 0.00 0.00 0.00 91 1020.8
20260507143818 57 26 4.0 12.0 0.00 0.00 0.00 91 1019.7
20260507143318 57 350 5.0 12.0 0.00 0.00 0.00 91 1020.6
20260507142817 57 351 5.0 12.0 0.00 0.00 0.00 92 1020.6
20260507142317 57 350 5.0 12.0 0.00 0.00 0.00 92 1020.5
20260507141817 57 41 5.0 12.0 0.00 0.00 0.00 92 1020.6
20260507141317 56 331 5.0 12.0 0.00 0.00 0.00 92 1020.9
20260507140817 56 92 5.0 11.0 0.00 0.00 0.00 92 1020.5
20260507140314 56 28 6.0 15.0 0.00 0.00 0.00 92 1020.3
20260507135810 56 22 6.0 15.0 0.00 0.00 0.00 93 1020.4
20260507135310 56 33 7.0 13.0 0.00 0.00 0.00 93 1020.4
20260507134808 56 32 7.0 13.0 0.00 0.00 0.00 93 1020.3
20260507134307 56 24 6.0 12.0 0.00 0.00 0.00 93 1020.2
20260507133805 56 9 5.0 11.0 0.00 0.00 0.00 94 1020.2
20260507133258 56 345 5.0 13.0 0.00 0.00 0.00 94 1020.1
20260507132752 56 27 7.0 14.0 0.00 0.00 0.00 94 1019.9
20260507132245 56 24 7.0 14.0 0.00 0.00 0.00 94 1019.7
20260507131959 56 9 7.0 14.0 0.00 0.00 0.00 94 1020.0
20260507131507 56 339 8.0 14.0 0.00 0.00 0.00 94 1019.9
20260507131450 56 11 7.0 14.0 0.00 0.00 0.00 94 1019.9
20260507130240 56 334 7.0 14.0 0.00 0.00 0.00 94 1020.0
20260507125738 56 310 6.0 13.0 0.00 0.00 0.00 94 1020.1
20260507125517 56 9 5.0 13.0 0.00 0.00 0.00 94 1020.3
20260507124735 56 0 5.0 13.0 0.00 0.00 0.00 95 1020.1
20260507124236 56 9 6.0 13.0 0.00 0.00 0.00 95 1020.0
20260507123954 56 14 7.0 15.0 0.00 0.00 0.00 94 1019.9
20260507123234 56 337 6.0 15.0 0.00 0.00 0.00 94 1019.9
20260507122734 56 310 6.0 15.0 0.00 0.00 0.00 94 1020.0
20260507122235 56 350 6.0 15.0 0.00 0.00 0.00 94 1019.6
20260507121734 56 338 7.0 15.0 0.00 0.00 0.00 94 1019.5
20260507121234 56 348 6.0 15.0 0.00 0.00 0.00 94 1019.4
20260507120734 56 19 6.0 13.0 0.00 0.00 0.00 94 1019.6
20260507120233 56 9 6.0 17.0 0.00 0.00 0.00 94 1019.4
20260507115734 56 336 6.0 17.0 0.00 0.00 0.00 94 1019.3
20260507115509 56 12 6.0 15.0 0.00 0.00 0.00 94 1018.9
20260507115448 56 18 6.0 12.0 0.00 0.00 0.00 93 1019.0
20260507115207 56 14 7.0 12.0 0.00 0.00 0.00 93 1019.0
20260507074659 58 63 3.0 10.0 0.00 0.00 0.00 91 1017.3
20260507074154 58 22 2.0 10.0 0.00 0.00 0.00 91 1017.3
20260507073647 58 38 4.0 10.0 0.00 0.00 0.00 91 1017.2
20260507073147 58 11 4.0 10.0 0.00 0.00 0.00 90 1017.0
20260507072648 58 10 3.0 9.0 0.00 0.00 0.00 90 1017.0
20260507072147 58 17 3.0 7.0 0.00 0.00 0.00 90 1017.1
20260507071645 58 11 3.0 7.0 0.00 0.00 0.00 90 1017.3
20260507071145 58 21 3.0 7.0 0.00 0.00 0.00 90 1017.3
20260507070646 58 19 3.0 8.0 0.00 0.00 0.00 90 1017.1
20260507070145 58 35 3.0 8.0 0.00 0.00 0.00 90 1017.3
20260507065645 58 44 3.0 7.0 0.00 0.00 0.00 89 1017.3
20260507065145 58 25 4.0 8.0 0.00 0.00 0.00 89 1017.0
20260507064911 59 11 4.0 8.0 0.00 0.00 0.00 89 1016.9
20260507064141 59 26 3.0 7.0 0.00 0.00 0.00 89 1017.0
20260507063638 59 27 3.0 7.0 0.00 0.00 0.00 89 1017.2
20260507063135 59 36 3.0 7.0 0.00 0.00 0.00 89 1017.0
20260507062635 59 19 3.0 10.0 0.00 0.00 0.00 89 1017.0
20260507062134 59 51 4.0 10.0 0.00 0.00 0.00 89 1017.0
20260507061634 59 17 4.0 10.0 0.00 0.00 0.00 89 1017.1
20260507061134 59 32 4.0 10.0 0.00 0.00 0.00 89 1017.2
20260507060635 59 25 4.0 9.0 0.00 0.00 0.00 89 1017.1
20260507060133 59 46 4.0 9.0 0.00 0.00 0.00 89 1017.4
20260507055627 59 9 3.0 8.0 0.00 0.00 0.00 89 1017.4
20260507055121 59 9 4.0 9.0 0.00 0.00 0.00 89 1017.2
20260507054615 59 45 4.0 9.0 0.00 0.00 0.00 89 1017.0
20260507054109 60 38 4.0 9.0 0.00 0.00 0.00 89 1017.1
20260507053609 60 38 4.0 10.0 0.00 0.00 0.00 89 1017.1
20260507053110 60 22 4.0 10.0 0.00 0.00 0.00 88 1017.1
20260507052609 60 349 4.0 10.0 0.00 0.00 0.00 88 1017.0
20260507052332 60 40 4.0 10.0 0.00 0.00 0.00 88 1017.1
20260507051610 60 28 4.0 10.0 0.00 0.00 0.00 88 1017.2
20260507051109 60 346 5.0 10.0 0.00 0.00 0.00 88 1017.2
20260507050607 60 30 5.0 10.0 0.00 0.00 0.00 88 1017.2
20260507050107 60 30 5.0 10.0 0.00 0.00 0.00 88 1017.2
20260507045606 60 0 4.0 10.0 0.00 0.00 0.00 88 1017.1
20260507045106 60 15 4.0 10.0 0.00 0.00 0.00 88 1017.3
20260507044827 60 339 4.0 8.0 0.00 0.00 0.00 88 1017.1
20260507044106 60 55 4.0 8.0 0.00 0.00 0.00 88 1017.0
20260507043606 60 74 4.0 9.0 0.00 0.00 0.00 88 1017.0
20260507043106 60 24 5.0 9.0 0.00 0.00 0.00 88 1017.0
20260507042606 60 41 5.0 11.0 0.00 0.00 0.00 89 1017.3
20260507042106 60 0 5.0 11.0 0.00 0.00 0.00 88 1017.1
20260507041607 60 336 4.0 10.0 0.00 0.00 0.00 89 1017.1
20260507041557 60 325 3.0 8.0 0.00 0.00 0.00 89 1017.5
20260507040606 60 30 3.0 7.0 0.00 0.00 0.00 89 1017.3
20260507040328 60 14 2.0 7.0 0.00 0.00 0.00 89 1017.4
20260507035607 60 9 3.0 7.0 0.00 0.00 0.00 89 1017.3
20260507035105 60 19 4.0 9.0 0.00 0.00 0.00 89 1017.2
20260507034605 60 0 4.0 9.0 0.00 0.00 0.00 89 1017.0
20260507034106 60 0 4.0 9.0 0.00 0.00 0.00 89 1017.0
20260507033606 60 28 4.0 9.0 0.00 0.00 0.00 89 1017.0
20260507033105 60 38 3.0 9.0 0.00 0.00 0.00 89 1017.1
20260507032900 60 18 3.0 9.0 0.00 0.00 0.00 90 1016.9
20260507032105 60 9 4.0 10.0 0.00 0.00 0.00 89 1016.9
20260507031605 60 0 4.0 10.0 0.00 0.00 0.00 90 1016.8
20260507031105 60 9 4.0 11.0 0.00 0.00 0.00 90 1016.3
20260507030605 60 9 4.0 11.0 0.00 0.00 0.00 90 1016.6
20260507030337 60 13 4.0 9.0 0.00 0.00 0.00 90 1016.3
20260507025606 60 0 4.0 9.0 0.00 0.00 0.00 90 1016.6
20260507025107 60 25 3.0 9.0 0.00 0.00 0.00 90 1016.8
20260507024831 60 342 3.0 9.0 0.00 0.00 0.00 90 1016.9
20260507024105 60 341 4.0 8.0 0.00 0.00 0.00 90 1016.9
20260507023606 60 325 4.0 8.0 0.00 0.00 0.00 89 1016.8
20260507023106 60 13 4.0 8.0 0.00 0.00 0.00 89 1016.3
20260507022606 60 312 3.0 8.0 0.00 0.00 0.00 89 1016.2
20260507022105 60 12 3.0 8.0 0.00 0.00 0.00 89 1016.1
20260507021606 60 30 3.0 6.0 0.00 0.00 0.00 89 1016.2
20260507021106 60 350 3.0 6.0 0.00 0.00 0.00 89 1016.2
20260507020613 60 0 3.0 7.0 0.00 0.00 0.00 89 1016.1
20260507020348 60 346 3.0 7.0 0.00 0.00 0.00 89 1016.0
20260507015608 60 311 2.0 6.0 0.00 0.00 0.00 88 1016.0
20260507015108 60 0 1.0 8.0 0.00 0.00 0.00 88 1015.9
20260507014608 61 15 2.0 8.0 0.00 0.00 0.00 88 1015.8
20260507014113 61 340 3.0 8.0 0.00 0.00 0.00 88 1015.6
20260507013606 61 339 3.0 8.0 0.00 0.00 0.00 88 1015.6
20260507013112 61 22 3.0 8.0 0.00 0.00 0.00 88 1015.6
20260507012606 61 348 2.0 6.0 0.00 0.00 0.00 88 1015.6
20260507012330 61 319 3.0 7.0 0.00 0.00 0.00 88 1015.2
20260507012110 61 348 2.0 6.0 0.00 0.00 0.00 88 1015.3
20260507011102 61 14 2.0 7.0 0.00 0.00 0.00 88 1015.4
20260507010601 61 0 2.0 7.0 0.00 0.00 0.00 88 1015.4
20260507010330 61 317 3.0 8.0 0.00 0.00 0.00 88 1015.0
20260507005559 61 351 3.0 8.0 0.00 0.00 0.00 88 1015.0
20260507005059 61 335 3.0 8.0 0.00 0.00 0.00 88 1015.0
20260507004557 61 10 4.0 9.0 0.00 0.00 0.00 87 1014.7